INTELSAT 33E DEB, 61997

Orbit data source: Space-Track

INTELSAT 33E DEB, 61997 is space debris in GEO originally from a launch on Wed, 24 Aug 2016 UTC launched from the French Guiana (FRGUI). Debris objects in space refer to the collection of defunct objects orbiting the Earth. Examples of debris include non-operational satellites, rocket bodies, and fragments generated from explosions, collisions, or faulty payload assembly.

Not visible in the next 10 days
Identifier
61997, 2016-053P
Orbit
GEO
Country
Flag of UnknownUnknown / ITSO
Related business
Manufacturer
Boeing/ES
Mission
Spacecraft
Bus & Motor
Unknown
Mass
Unknown
Launch date (UTC)
2016-08-24 (9 years ago)
Launch vehicle
Unknown
Launch site
French Guiana (FRGUI)
Object type
Payload
Rocket body
Debris
Shape & HBR
Unknown shape, 1.1 m
Radar Cross Section
RCS unknown

Expand to show TLE details & history
Last TLE update: 15 hours ago

TLE from 15 hours ago
0 INTELSAT 33E DEB
1 61997U 16053P   25295.80589439 -.00000028  00000-0  00000-0 0  9997
2 61997   0.9610  89.9152 0089801 259.1208  10.8081  1.01613163  3741
Epoch: 2025-10-22T19:20Z
TLE epoch observation values (Epoch: 2025-10-22T19:20:29.275Z)
Latitude
-0.94015°
Longitude
38.40367°
Altitude
35,045.073 km
Speed
3.116 km/s
True Right ascension
23h 59m 59s
True Declination
0° 56' 21"
Sunlit
Object was in daylight at epoch
Visualization orbit readout
Latitude
Unknown
Longitude
Unknown
Altitude
Unknown
Speed
Unknown
Apparent Right ascension
Unknown
Apparent Declination
Unknown
Sunlit
N/A
Visualization observer readout
Local Sidereal Time
05:55:48
Azimuth
Unknown
Elevation
Unknown
Doppler factor
Unknown
Orbital elements
Apogee altitude
35,791.093 km
Perigee altitude
35,040.466 km
Semi-major axis
41,793.917 km
Eccentricity
0.00898
Inclination
0.961°
RAAN
89.9152°
Arg. of periapsis
259.1208°
True anomaly
11.00322°
Mean anomaly
10.8081°
Eccentric anomaly
10.90544°
Mean motion
0.25402 °/min
Orbital period
1,417.19 mins
BSTAR
0
Loading maneuver chart data...
Computing Atmospheric mass density...
Loading historical data...
Loading historical data...
Loading historical data...
Loading historical data...
Loading historical data...
Loading historical data...
Loading historical data...

Documentation

Showing up to 5 results
|